This demonstration page uses our WeatherBlox Daily Observations layout. Learn more.

41.55636, -103.73856

Hourly Observations for October 26, 2020

Temp ( °F °C ) Dew Point ( °F °C ) Humidity (%) Winds ( mph kmh ) Pressure ( in mb ) Visibility ( mi km ) Precip ( " mm )
12:58 am 00:58 Mostly Cloudy 4 -15.8 0 -17.8 85 85 Calm 30.62 1037 10 16.0934 0 0
1:58 am 01:58 Mostly Cloudy 4 -15.3 1 -17.1 86 86 Calm 30.61 1037 10 16.0934 0 0
2:58 am 02:58 Mostly Cloudy 1 -17 -2 -19 85 85 SW 5 7 30.6 1036 10 16.0934 0 0
3:58 am 03:58 Mostly Cloudy -1 -18.5 -5 -20.4 85 85 SSW 7 11 30.6 1036 10 16.0934 0 0
4:58 am 04:58 Mostly Cloudy 1 -17.4 -3 -19.3 85 85 SSW 5 7 30.59 1036 10 16.0934 0 0
5:58 am 05:58 Mostly Cloudy 0 -17.6 -3 -19.4 86 86 SW 3 6 30.58 1036 10 16.0934 0 0
6:58 am 06:58 Cloudy 2 -16.7 -1 -18.5 86 86 SW 5 7 30.59 1036 10 16.0934 0 0
7:58 am 07:58 Cloudy 5 -15.1 2 -16.9 86 86 Calm 30.58 1036 10 16.0934 0 0
8:58 am 08:58 Cloudy 7 -14.1 4 -15.8 87 87 SW 5 7 30.57 1035 10 16.0934 0 0
9:58 am 09:58 Cloudy 11 -11.8 4 -15.8 72 72 SW 9 15 30.53 1034 10 16.0934 0 0
10:58 am 10:58 Mostly Cloudy 13 -10.3 5 -15.1 68 68 WSW 8 13 30.51 1033 10 16.0934 0 0
11:58 am 11:58 Mostly Sunny 16 -9.1 5 -14.8 64 64 WSW 10 17 30.51 1033 10 16.0934 0.02 0.508
12:58 pm 12:58 Sunny 16 -8.9 2 -16.5 54 54 W 7 11 30.47 1032 10 16.0934 0 0
1:58 pm 13:58 Sunny 18 -8 4 -15.6 55 55 W 7 11 30.45 1031 10 16.0934 0 0
2:58 pm 14:58 Sunny 18 -8 10 -12.4 71 71 SW 8 13 30.42 1030 10 16.0934 0.01 0.254
3:58 pm 15:58 Mostly Cloudy 16 -8.8 9 -12.8 73 73 SW 8 13 30.44 1031 10 16.0934 0 0
4:58 pm 16:58 Mostly Cloudy 15 -9.2 9 -13 74 74 SW 9 15 30.43 1031 10 16.0934 0 0
5:58 pm 17:58 Mostly Cloudy 15 -9.7 8 -13.2 76 76 SSW 16 26 30.44 1031 10 16.0934 0 0
6:58 pm 18:58 Mostly Cloudy 12 -11 6 -14.5 76 76 SSW 14 22 30.43 1031 10 16.0934 0 0
7:58 pm 19:58 Clear 10 -12.3 4 -15.8 75 75 SSW 16 26 30.45 1031 10 16.0934 0 0
8:58 pm 20:58 Clear 6 -14.4 0 -17.7 76 76 SW 8 13 30.46 1032 10 16.0934 0 0
9:58 pm 21:58 Clear 4 -15.3 -1 -18.5 77 77 WNW 8 13 30.45 1031 10 16.0934 0 0
10:58 pm 22:58 Clear 2 -16.9 -5 -20.3 75 75 WSW 7 11 30.48 1032 10 16.0934 0 0
11:58 pm 23:58 Clear 0 -17.7 -8 -22.4 67 67 SW 6 9 30.44 1031 10 16.0934 0 0

Powered by AerisWeather